Temp
13 13 13 13 13 14 14 15 14 14 13 13 12 12 12 11 11 11 11 11 11 11 11 11 11 11 11 11 12 12 12 12 12 12 12 12 12 12 12 12 12 12
13 13 13 13 14 14 14 14 14 14 13 13 12 12 12 11 11 11 11 10 11 11 11 11 11 11 11 11 12 12 12 12 12 12 12 12 12 12 12 12 12 11
13 13 13 13 14 14 14 14 14 14 13 13 12 12 11 11 11 11 11 10 10 10 10 10 11 11 11 11 12 12 12 12 12 12 12 12 12 12 12 12 12 12
13 13 13 14 14 14 14 14 14 14 13 13 12 12 11 11 11 11 11 10 10 10 10 10 10 11 11 11 11 12 12 12 11 12 12 12 12 12 12 12 12 12
13 13 13 14 14 14 14 14 14 13 13 12 12 12 11 11 11 11 11 11 11 11 11 10 10 10 11 11 11 11 11 11 11 11 11 11 11 12 12 12 12 12
13 13 13 13 13 13 13 14 13 13 13 12 12 12 11 11 11 11 12 12 11 11 11 11 10 10 10 11 11 11 11 11 11 11 11 11 11 12 12 12 12 12
13 13 13 13 13 14 14 14 13 13 12 12 12 11 11 11 11 12 12 12 12 12 11 11 10 10 10 10 11 11 11 11 11 11 11 11 11 12 12 12 12 12
13 13 13 13 13 14 14 14 13 13 13 12 12 11 11 11 12 12 12 12 12 12 12 11 10 10 10 10 11 11 11 11 11 11 11 11 11 12 12 12 12 12
13 13 13 13 13 14 14 14 13 13 13 12 12 11 11 12 12 12 12 12 12 12 11 10 10 9 10 10 10 11 11 10 10 10 11 11 11 11 12 12 12 12
13 13 13 13 13 13 13 13 12 12 12 12 12 12 12 12 12 12 12 12 12 11 11 10 10 9 9 10 10 10 11 10 10 10 11 11 11 11 12 12 12 12
13 13 13 13 13 13 12 12 12 12 12 12 12 12 12 12 12 11 11 11 11 11 11 10 10 10 10 10 10 10 10 10 10 10 10 11 11 11 11 12 12 12
13 13 13 13 13 12 12 12 11 11 11 11 11 11 11 11 11 11 11 11 11 11 11 11 10 10 10 10 10 10 10 10 10 10 10 10 11 11 11 11 12 12
12 12 12 12 12 12 11 11 11 11 11 11 11 11 11 11 11 10 10 10 10 10 11 11 10 10 10 10 10 10 10 10 10 10 10 11 11 11 11 11 11 11
12 12 12 12 12 11 11 11 10 10 10 10 10 10 10 11 10 10 10 10 10 10 10 10 10 10 10 10 10 10 10 10 10 10 10 11 11 11 11 11 11 11
11 11 11 11 11 11 11 11 11 10 10 10 10 10 10 10 10 10 10 10 10 10 10 10 10 10 10 10 10 10 10 10 10 11 11 11 11 11 11 11 11 11
10 10 10 10 10 10 10 10 11 10 10 10 11 10 10 10 10 10 10 10 10 10 10 10 10 10 10 10 10 10 10 10 11 11 11 11 11 11 11 11 11 11
9 9 9 9 9 10 10 10 10 10 10 10 10 10 10 10 10 10 10 10 10 10 10 10 10 10 10 10 11 11 11 11 11 11 11 11 11 11 11 11 11 11
9 9 9 9 9 9 9 9 10 10 10 10 10 10 10 10 10 10 10 10 11 10 10 10 10 10 10 10 10 11 11 11 11 11 11 11 11 11 11 11 11 11
8 8 9 9 9 9 9 9 9 10 10 10 10 10 10 10 10 10 10 10 11 11 11 11 11 11 11 10 10 10 10 11 11 11 11 11 11 11 11 11 11 11
8 8 8 8 8 8 9 9 9 9 9 10 9 9 10 10 10 10 10 10 10 10 11 11 11 11 11 11 11 11 10 11 11 11 11 11 11 11 11 11 11 11
8 8 8 8 8 8 9 9 9 9 9 9 9 9 10 10 10 10 10 10 10 10 10 10 10 11 11 11 11 11 11 11 11 11 11 11 11 11 11 11 11 11
7 8 8 8 8 8 8 9 9 9 9 9 9 9 9 9 9 9 9 10 10 10 10 10 10 10 10 10 10 11 11 11 11 11 11 11 11 11 11 11 11 11
7 7 7 7 8 8 8 8 8 8 8 8 9 9 9 9 9 9 9 9 9 9 10 10 10 10 10 10 10 10 10 10 11 11 11 11 11 11 10 10 10 10
8 8 8 8 8 8 8 8 8 8 8 8 8 8 8 8 9 9 9 9 9 9 9 9 10 10 10 10 10 10 10 10 10 10 10 10 11 11 10 10 10 10
8 8 8 8 8 8 8 8 8 8 8 8 9 8 8 9 9 9 9 9 9 9 9 9 9 9 9 9 9 9 9 10 10 10 10 10 10 10 10 10 10 9
8 9 9 9 9 9 9 9 9 9 9 9 9 9 9 9 9 9 9 9 9 9 9 9 9 9 9 9 9 9 9 9 9 9 9 9 10 10 10 10 9 9
Height
1523 1525 1527 1529 1530 1532 1534 1535 1536 1538 1539 1540 1540 1541 1541 1541 1542 1543 1544 1545 1546 1547 1548 1548 1549 1549 1549 1550 1550 1551 1551 1552 1552 1553 1554 1555 1556 1557 1558 1559 1559 1560
1523 1525 1527 1529 1531 1532 1534 1535 1536 1538 1539 1540 1540 1541 1541 1541 1542 1543 1544 1545 1546 1547 1548 1548 1549 1549 1549 1550 1550 1551 1551 1552 1553 1553 1554 1555 1556 1556 1557 1558 1559 1560
1523 1525 1527 1529 1531 1533 1534 1535 1536 1538 1539 1539 1540 1541 1541 1541 1542 1543 1544 1545 1546 1547 1547 1548 1548 1549 1549 1550 1550 1551 1551 1552 1553 1553 1554 1555 1556 1556 1557 1558 1559 1559
1524 1525 1527 1529 1531 1532 1534 1535 1536 1538 1539 1539 1540 1541 1541 1542 1542 1543 1543 1544 1545 1546 1547 1548 1548 1549 1549 1549 1550 1551 1551 1552 1553 1554 1555 1555 1556 1556 1557 1558 1559 1559
1523 1525 1527 1529 1530 1531 1533 1534 1536 1538 1538 1539 1540 1541 1541 1542 1542 1543 1543 1544 1544 1545 1546 1547 1548 1548 1549 1549 1550 1551 1551 1552 1553 1554 1555 1556 1556 1557 1557 1558 1559 1559
1523 1525 1527 1528 1530 1531 1533 1534 1536 1537 1538 1539 1540 1541 1541 1542 1542 1543 1543 1544 1544 1545 1546 1546 1547 1548 1549 1549 1550 1551 1552 1553 1554 1554 1555 1556 1557 1557 1557 1558 1559 1560
1524 1525 1527 1528 1529 1531 1533 1534 1536 1537 1537 1539 1540 1540 1541 1542 1542 1542 1543 1544 1544 1545 1546 1546 1547 1548 1549 1549 1550 1551 1552 1553 1554 1555 1556 1557 1557 1558 1558 1558 1559 1560
1524 1525 1527 1528 1529 1530 1532 1534 1535 1536 1537 1538 1539 1540 1541 1541 1542 1542 1543 1544 1545 1545 1546 1546 1547 1548 1548 1549 1550 1551 1552 1553 1554 1555 1556 1557 1558 1559 1559 1559 1560 1560
1523 1525 1526 1527 1529 1530 1532 1533 1534 1536 1537 1538 1539 1540 1540 1541 1541 1542 1543 1544 1545 1546 1546 1546 1547 1547 1548 1549 1550 1551 1551 1552 1553 1555 1556 1557 1558 1559 1560 1560 1560 1561
1522 1524 1525 1526 1528 1530 1531 1533 1534 1535 1536 1538 1539 1539 1540 1541 1541 1542 1543 1544 1545 1546 1546 1546 1547 1547 1548 1549 1549 1550 1551 1552 1553 1555 1556 1557 1558 1559 1560 1561 1561 1562
1521 1523 1525 1526 1528 1529 1531 1533 1534 1535 1536 1537 1538 1539 1540 1541 1542 1543 1543 1544 1545 1546 1546 1546 1547 1547 1548 1548 1549 1550 1551 1552 1553 1554 1556 1557 1558 1559 1560 1561 1562 1563
1521 1523 1525 1526 1528 1529 1531 1532 1533 1534 1535 1536 1538 1539 1540 1541 1542 1543 1544 1544 1545 1545 1546 1546 1547 1547 1547 1548 1548 1549 1550 1551 1553 1554 1555 1557 1558 1559 1560 1561 1562 1563
1521 1523 1524 1526 1527 1528 1530 1531 1532 1534 1535 1536 1538 1539 1541 1542 1543 1544 1544 1545 1545 1545 1545 1546 1546 1547 1547 1548 1548 1549 1550 1551 1552 1554 1555 1556 1557 1558 1559 1561 1562 1563
1520 1521 1523 1525 1526 1527 1529 1530 1531 1532 1534 1536 1538 1539 1541 1542 1543 1544 1545 1545 1546 1545 1546 1546 1546 1547 1547 1548 1549 1549 1550 1551 1552 1554 1555 1556 1557 1558 1559 1560 1561 1562
1519 1521 1522 1524 1525 1526 1528 1529 1530 1532 1535 1537 1538 1539 1541 1543 1544 1545 1545 1546 1546 1546 1546 1546 1547 1547 1548 1548 1549 1549 1550 1551 1552 1553 1555 1556 1557 1558 1559 1560 1561 1562
1518 1520 1522 1523 1524 1526 1528 1530 1531 1533 1536 1538 1539 1540 1541 1542 1543 1544 1545 1545 1545 1546 1546 1546 1547 1548 1548 1549 1549 1550 1550 1551 1552 1553 1554 1556 1557 1558 1559 1560 1561 1562
1518 1520 1522 1523 1525 1526 1528 1530 1531 1533 1536 1537 1538 1540 1541 1542 1543 1543 1544 1545 1545 1545 1546 1546 1547 1548 1548 1549 1549 1550 1551 1551 1552 1553 1554 1555 1556 1557 1558 1559 1560 1561
1519 1520 1522 1523 1525 1526 1527 1529 1531 1532 1535 1536 1538 1539 1540 1541 1542 1543 1543 1544 1544 1545 1545 1546 1546 1547 1548 1548 1549 1550 1551 1551 1552 1553 1554 1555 1556 1556 1557 1558 1559 1560
1520 1521 1522 1523 1525 1526 1527 1529 1530 1532 1534 1535 1537 1538 1539 1540 1541 1541 1542 1543 1543 1544 1545 1545 1546 1546 1547 1547 1548 1549 1549 1550 1551 1552 1553 1554 1555 1555 1556 1557 1557 1558
1521 1522 1523 1524 1525 1527 1528 1529 1531 1532 1533 1535 1536 1537 1538 1539 1540 1540 1541 1542 1542 1543 1544 1545 1545 1546 1546 1547 1547 1548 1548 1549 1550 1551 1552 1553 1553 1554 1554 1555 1555 1556
1522 1523 1524 1525 1526 1527 1528 1529 1531 1532 1533 1534 1535 1536 1537 1538 1538 1539 1540 1540 1542 1543 1543 1544 1544 1545 1545 1546 1546 1547 1547 1548 1548 1549 1550 1550 1551 1552 1552 1552 1553 1553
1523 1524 1525 1526 1527 1528 1528 1529 1531 1532 1533 1534 1534 1535 1536 1536 1537 1538 1539 1540 1540 1541 1542 1542 1543 1544 1544 1545 1545 1546 1546 1546 1547 1547 1547 1548 1548 1549 1550 1550 1551 1551
1525 1526 1526 1527 1528 1528 1529 1530 1531 1532 1533 1534 1534 1534 1535 1536 1537 1538 1538 1539 1539 1540 1541 1541 1541 1542 1542 1543 1543 1544 1544 1544 1545 1545 1545 1545 1546 1546 1547 1547 1548 1548
1527 1528 1528 1529 1529 1529 1530 1531 1531 1532 1532 1533 1534 1534 1534 1536 1536 1537 1537 1538 1538 1539 1540 1540 1540 1540 1540 1540 1541 1541 1542 1542 1542 1542 1543 1543 1543 1544 1544 1544 1544 1545
1527 1528 1529 1529 1530 1530 1531 1531 1532 1532 1533 1533 1533 1534 1534 1535 1535 1535 1536 1536 1537 1537 1538 1538 1538 1538 1538 1538 1539 1539 1539 1539 1539 1539 1540 1540 1541 1541 1541 1541 1541 1543
1527 1528 1528 1529 1530 1530 1530 1531 1531 1532 1533 1533 1533 1533 1533 1534 1534 1534 1534 1535 1535 1536 1536 1536 1537 1536 1536 1536 1536 1536 1536 1536 1536 1536 1536 1537 1537 1537 1538 1538 1538 1539
Wind_Speed
13 11 9 6 5 7 9 9 7 5 3 3 2 2 1 0 1 1 1 2 3 5 5 5 3 2 5 9 9 8 7 7 7 8 8 9 10 11 11 11 10 11
12 11 9 7 6 9 9 7 5 4 3 2 2 2 2 1 1 1 1 1 2 3 4 4 4 3 4 6 8 8 8 7 7 8 8 8 9 9 10 10 10 12
13 11 8 7 7 9 9 7 6 5 3 2 2 2 2 2 1 2 2 3 3 3 4 5 5 4 4 5 7 8 7 7 7 8 8 8 8 8 8 9 11 13
12 10 8 8 9 9 8 8 8 6 4 3 2 0 1 2 2 2 2 4 6 5 5 5 6 5 5 5 6 7 7 6 6 7 8 7 7 8 7 8 11 13
12 11 11 11 11 11 10 9 9 7 4 3 2 1 2 3 4 3 2 4 6 7 6 7 7 6 5 5 6 7 6 5 5 6 6 6 6 6 6 6 9 12
14 14 13 11 11 10 10 10 9 6 4 3 2 1 3 4 5 4 3 4 6 7 7 8 8 6 5 5 7 7 6 5 5 6 6 5 4 4 4 4 6 10
15 14 13 11 10 10 12 12 9 6 4 3 2 2 3 5 5 4 3 4 5 6 7 8 9 7 6 7 7 8 7 6 6 7 7 5 4 4 2 2 4 7
15 15 12 10 10 12 14 13 9 5 3 2 2 2 4 4 3 3 3 4 5 6 6 7 8 7 7 7 7 8 8 7 7 7 6 5 5 5 3 2 4 7
17 16 14 11 11 13 14 12 8 5 3 2 2 3 4 4 4 4 4 5 5 5 5 6 7 7 8 7 7 8 8 8 7 6 5 4 5 4 4 3 5 10
19 19 16 14 14 14 13 10 7 6 4 2 2 3 4 4 5 5 5 6 6 6 6 6 7 8 9 9 8 7 8 8 8 7 6 5 5 4 4 4 6 10
21 21 18 16 15 15 13 11 9 7 6 3 2 2 4 5 5 5 6 7 7 8 7 6 6 6 7 9 8 8 9 9 9 9 9 8 8 7 6 5 6 8
22 22 20 17 17 16 15 14 12 10 8 5 4 3 4 4 3 3 3 3 5 6 7 7 6 5 4 5 7 9 10 10 11 11 12 11 11 10 10 9 7 7
23 24 21 19 20 19 18 16 13 10 9 8 7 6 4 3 3 3 3 2 2 1 3 6 6 6 5 4 6 8 9 10 12 13 12 11 11 11 12 12 11 10
24 23 21 22 22 21 20 19 15 10 7 6 7 7 5 3 2 2 2 2 2 3 1 2 5 6 6 6 6 7 7 8 11 13 12 11 10 9 11 13 15 14
22 21 21 22 22 19 19 20 17 11 5 3 4 6 7 5 4 3 3 2 2 1 2 2 1 2 5 6 7 7 6 7 9 12 12 11 11 11 11 12 14 15
20 19 19 19 18 17 16 16 18 18 13 10 11 9 8 8 7 6 6 5 4 2 1 1 2 1 1 4 7 7 7 7 9 11 12 12 13 13 13 13 13 15
16 17 16 15 14 14 12 11 14 18 16 14 13 10 9 10 10 8 8 7 6 4 3 2 1 2 2 3 4 6 7 8 9 10 12 12 13 14 14 13 13 14
13 15 14 13 12 13 12 12 13 15 15 14 13 11 11 11 11 10 9 8 7 6 5 4 3 4 4 4 5 5 6 7 8 9 10 11 12 14 14 14 15 15
11 13 14 13 13 14 15 15 15 14 15 14 13 12 13 12 12 12 10 9 8 8 7 7 6 6 7 7 7 7 8 8 8 8 9 9 10 11 13 14 15 16
9 11 13 14 14 14 16 17 16 16 16 16 14 13 13 12 12 12 11 11 10 10 9 10 9 9 9 9 9 9 10 11 11 11 11 10 10 11 11 12 13 14
10 10 11 11 12 12 14 15 16 15 16 17 16 15 14 13 11 11 11 12 12 12 12 12 12 12 12 12 12 12 12 13 14 15 15 15 15 14 14 14 13 14
14 12 11 10 9 9 11 12 13 14 14 15 15 15 14 13 12 12 11 12 12 12 13 13 14 14 14 14 14 14 15 15 16 17 18 19 19 19 19 19 18 19
15 14 13 11 10 8 8 9 10 11 12 11 12 12 12 11 12 12 12 12 12 12 13 14 15 16 16 17 17 17 17 18 18 19 20 21 21 22 23 24 24 25
12 11 11 10 9 8 8 8 8 8 9 9 9 10 10 10 10 9 10 11 12 13 13 14 15 17 18 19 20 20 20 21 21 22 22 23 23 24 25 26 27 27
7 6 6 5 4 4 4 4 4 5 5 6 7 7 8 8 8 8 9 10 11 12 13 13 14 15 16 18 19 20 21 22 23 24 24 25 26 26 27 28 28 27
4 3 2 1 1 2 2 3 4 5 5 6 8 9 9 10 10 11 11 12 12 13 14 15 15 15 16 17 18 19 20 21 23 24 26 27 28 29 30 31 31 29
Wind_Direction
174 177 180 182 190 189 183 174 160 144 140 128 99 86 72 79 124 123 131 139 156 181 205 222 240 252 217 206 201 199 203 211 216 216 215 214 215 220 223 224 223 214
181 184 187 193 195 191 187 172 152 151 153 136 102 87 78 63 8 295 251 216 191 198 211 227 245 261 244 220 208 203 203 210 216 218 219 217 215 219 221 219 212 201
185 183 188 198 196 192 187 169 162 173 173 158 129 86 64 50 349 288 255 232 220 222 226 233 240 246 251 240 221 211 208 208 211 213 214 215 215 218 221 213 199 191
181 180 185 191 191 194 191 177 176 182 174 160 150 52 3 356 330 305 255 231 227 230 231 229 230 227 234 239 227 217 214 207 203 204 208 214 218 221 222 207 191 186
181 182 182 183 188 195 194 185 183 179 165 160 172 261 309 315 317 315 272 236 232 234 230 219 215 210 210 219 214 209 209 205 197 197 204 215 228 232 227 209 192 185
186 184 181 182 188 197 194 186 183 175 160 166 189 250 299 304 309 308 274 239 231 235 231 214 206 197 185 191 194 193 195 195 190 192 201 208 226 242 239 220 201 188
190 187 185 188 193 193 188 182 179 168 164 187 206 242 288 302 301 288 248 226 223 229 220 202 198 192 178 174 178 185 189 191 188 186 192 200 209 222 226 223 206 188
195 192 190 194 195 189 184 182 178 162 166 205 222 256 286 286 262 228 207 207 216 221 207 191 190 187 181 175 179 188 190 194 193 180 179 192 200 200 189 184 187 179
198 195 194 195 192 188 184 181 177 168 180 217 242 276 282 251 211 194 195 207 217 221 213 202 197 195 197 197 196 200 200 202 201 184 174 188 195 189 174 161 167 170
200 197 197 193 189 188 182 178 180 179 179 195 252 271 252 214 201 198 205 215 222 226 222 214 211 211 217 222 219 209 201 204 207 198 188 193 198 194 182 163 159 167
200 199 200 195 189 187 182 180 182 173 160 165 200 223 203 199 209 216 221 224 224 227 224 213 212 216 221 223 216 200 193 199 207 205 200 202 206 210 206 189 169 168
200 202 204 200 192 187 184 181 173 158 149 149 143 149 170 186 201 203 204 214 218 224 222 210 203 208 215 210 197 189 191 199 204 206 208 210 212 216 217 214 203 190
200 203 207 205 195 187 182 173 158 148 151 150 139 142 154 148 142 142 117 104 108 165 213 213 205 200 202 203 197 195 201 207 206 206 210 213 217 219 215 214 216 216
202 205 210 207 196 190 185 173 157 150 156 159 152 150 155 153 134 133 124 103 79 66 90 201 209 205 205 210 211 209 213 217 211 206 207 210 214 216 210 210 216 220
206 211 213 208 200 201 203 193 185 190 205 232 213 182 174 189 212 221 212 183 150 92 69 76 123 197 217 221 218 213 216 224 216 206 205 207 208 208 207 209 214 219
207 207 207 205 200 203 207 203 207 217 228 249 249 224 197 205 223 231 230 214 197 195 180 75 60 41 280 242 231 225 224 225 219 208 203 205 208 211 212 213 216 220
202 196 194 195 193 195 198 197 207 215 219 228 232 220 211 219 224 225 228 222 211 207 213 227 281 319 322 297 262 244 234 232 228 219 212 211 213 216 220 222 225 228
185 185 188 193 196 201 201 194 195 200 204 209 213 215 222 227 225 223 226 228 223 221 226 234 246 258 267 274 276 268 255 245 241 236 233 231 229 229 230 232 234 235
168 171 174 178 180 186 189 187 190 197 200 203 208 217 223 226 227 227 228 233 233 233 238 243 246 250 251 249 252 257 257 255 253 250 248 248 248 249 248 246 245 245
160 165 167 171 171 174 180 183 189 197 200 201 203 209 216 222 226 230 233 239 243 243 246 249 250 250 249 248 246 247 249 252 253 253 253 254 256 258 259 260 259 257
143 155 164 171 177 184 186 185 190 198 202 204 206 209 214 218 223 231 237 242 246 250 251 252 253 253 252 251 251 250 250 250 250 251 253 255 258 259 261 262 263 264
125 136 147 155 169 188 194 189 192 200 204 207 213 218 221 225 231 238 243 245 247 250 252 253 255 257 258 258 256 254 254 253 252 251 250 251 254 257 260 261 262 263
114 122 130 135 146 163 173 175 182 193 201 207 217 224 228 233 240 244 247 250 252 251 253 255 257 258 260 261 261 260 259 259 258 256 254 252 251 251 255 259 261 262
109 113 118 124 135 143 147 153 165 179 191 201 212 221 226 234 241 246 249 252 255 256 256 257 259 261 262 262 263 263 263 263 262 261 260 258 256 253 253 255 258 260
93 100 110 119 128 134 140 152 169 184 198 211 222 229 231 235 241 246 251 254 256 259 261 261 263 265 266 267 267 268 268 268 268 267 267 265 263 262 259 258 260 260
46 37 23 357 317 303 293 281 272 269 266 261 259 259 260 259 259 259 260 261 261 261 263 263 264 267 270 273 273 273 273 273 273 273 272 270 268 267 266 265 266 265